Flag for U.S.A. Weather past 2 weeks in Flint, Michigan, U.S.A.

Now
45 °F

Overcast.


Feels Like: 40 °F
Forecast: 37 / 54 °F
Wind: 9 mph from Northeast

Location: Bishop International Airport

Current Time: Oct 21, 2014 at 11:14:19 PM

Latest Report: Oct 21, 2014 at 9:53 PM


Visibility: 10 mi

Pressure: 30.25 "Hg

Humidity: 68%

Dew point: 35 °F

Location of FlintLocation

Historic Weather in Flint — Graph

°F

Flint temperature yesterday

Maximum temperature yesterday: 58 °F (at 2:53 PM)
Minimum temperature yesterday: 49 °F (at 3:53 AM)
Average temperature yesterday: 53 °F

Past Weeks' High & Low Weather Summary

 TemperatureHumidityPressure
High71 °F (Oct 14, 2:53 AM)93% (Oct 15, 11:53 PM)30.29 "Hg (Oct 15, 11:53 PM)
Low31 °F (Oct 11, 6:53 AM)33% (Oct 8, 3:53 PM)29.47 "Hg (Oct 17, 2:53 PM)
Average52 °F73%29.91 "Hg
* Reported Oct 6 9:53 PM — Oct 21 9:53 PM, Flint, Weather by CustomWeather, © 2014

Note: Actual official high and low records may vary slightly from our data, if they occured in-between our weather recording intervals... More about our weather records

Advertising

Flint weather history for previous 24 hours

 ConditionsComfort  
Time TempWeatherWind HumidityBarometerVisibility
9:53 PM
Oct 21
45 °FOvercast.9 mph68%30.25 "Hg10 mi
8:53 PM45 °FMostly cloudy.12 mph68%30.24 "Hg10 mi
7:53 PM45 °FMostly cloudy.14 mph68%30.22 "Hg10 mi
6:53 PM45 °FOvercast.13 mph68%30.20 "Hg10 mi
5:53 PM46 °FOvercast.17 mph68%30.18 "Hg10 mi
4:53 PM46 °FOvercast.20 mph68%30.16 "Hg10 mi
3:53 PM46 °FOvercast.18 mph71%30.14 "Hg10 mi
2:53 PM46 °FOvercast.16 mph71%30.12 "Hg10 mi
1:53 PM46 °FOvercast.20 mph71%30.11 "Hg10 mi
12:53 PM47 °FMostly cloudy.17 mph71%30.10 "Hg10 mi
11:53 AM47 °FOvercast.13 mph74%30.09 "Hg10 mi
10:53 AM47 °FMostly cloudy.16 mph77%30.08 "Hg10 mi
9:53 AM47 °FOvercast.13 mph83%30.06 "Hg10 mi
8:53 AM47 °FFog.8 mph86%30.03 "Hg6 mi
8:03 AM47 °FLight rain. Fog.10 mph90%30.00 "Hg5 mi
7:53 AM47 °FLight rain. Fog.10 mph90%30.00 "Hg4 mi
7:00 AM48 °FMostly cloudy.9 mph86%29.97 "Hg10 mi
5:53 AM48 °FLight rain. Fog.6 mph89%29.95 "Hg1 mi
4:53 AM49 °FOvercast.9 mph84%29.92 "Hg8 mi
3:53 AM49 °FMostly cloudy.7 mph80%29.91 "Hg10 mi
2:53 AM50 °FMostly cloudy.12 mph77%29.91 "Hg10 mi
1:53 AM49 °FMostly cloudy.8 mph84%29.91 "Hg10 mi
12:53 AM50 °FOvercast.6 mph80%29.90 "Hg10 mi
11:53 PM
Oct 20
50 °FMostly cloudy.5 mph80%29.90 "Hg10 mi
Weather by CustomWeather, © 2014

See weather overviewHow to use our weather pages